Location: Moscow
(55.7500°N, 37.5830°E)
Time: 10:23:12
(UTC+03:00)

A-11 Canister half - Pass Details

Date: 07 December 2021
Orbit: 1516 x 1684 km, 47.2° (Epoch: 24 January)

Event Time Altitude Azimuth Distance (km) Brightness Sun altitude
Rises 11:15:50 0° 274° (W) 4,841 11.4 10.4°
Reaches altitude 10° 11:19:06 10° 268° (W) 3,875 11.0 10.5°
Maximum altitude 11:28:16 44° 201° (SSW) 2,175 10.7 10.8°
Drops below altitude 10° 11:37:37 10° 134° (SE) 3,943 12.2 11.1°
Sets 11:40:58 0° 128° (SE) 4,932 12.5 11.1°
